Regional Weather Roundup
Issued by NWS

Home | Current Version | Previous Version | Graphics & Text | Print | Product List | Glossary On
Versions: 1 2 3 4 5 6 7 8 9 10 11 12 13 14 15 16 17 18 19 20 21 22 23 24 25 26 27 28 29 30 31 32 33 34 35 36 37 38 39 40 41 42 43 44 45 46 47 48 49 50
000
ASUS43 KTOP 040508
RWRKS

WEATHER ROUNDUP FOR KANSAS
NATIONAL WEATHER SERVICE GOODLAND KS
1100 PM CST SAT DEC 03 2016

NOTE:  "FAIR" INDICATES FEW OR NO CLOUDS BELOW 12,000 FEET WITH NO
SIGNIFICANT WEATHER AND/OR OBSTRUCTIONS TO VISIBILITY.

KSZ001>006-013>018-027>032-041>047-040600-
NORTHWEST KANSAS

CITY           SKY/WX    TMP DP  RH WIND       PRES   REMARKS
GOODLAND       CLEAR     26  21  81 W8        30.03R
HAYS           CLOUDY    33  32  96 CALM      30.06F FOG
HILL CITY      CLOUDY    32  32 100 W8        30.07R FOG
RUSSELL        LGT RAIN  34  34 100 W5        30.06R
$$

KSZ061>065-074>080-084>089-040600-
SOUTHWEST KANSAS

CITY           SKY/WX    TMP DP  RH WIND       PRES   REMARKS
DODGE CITY     LGT RAIN  38  37  97 N3        30.05S FOG
ELKHART          N/A     34  30  85 W2          N/A
GARDEN CITY    FOG       33  32  96 W5        30.03F VSB 1/4
GREAT BEND     RAIN      39 N/A N/A W6        30.07R
LIBERAL        CLOUDY    39  34  81 NW3       30.05R
PRATT          RAIN      37  37  98 CALM      30.05F
$$

KSZ066>073-081>083-090>101-040600-
SOUTHEAST KANSAS

CITY           SKY/WX    TMP DP  RH WIND       PRES   REMARKS
CHANUTE        LGT RAIN  42  39  89 SE12      30.08F
COFFEYVILLE    LGT RAIN  42  41  96 E8        30.09F FOG
HUTCHINSON     RAIN      41  40  96 CALM      30.08S FOG
MEDICINE LODGE   N/A     40  39  97 NE3       30.05F
NEWTON         LGT RAIN  39  39 100 N5        30.08S FOG
PARSONS        LGT RAIN  42  40  92 E5        30.10F FOG
WICHITA INTL   LGT RAIN  42  41  96 N3        30.07S FOG
WICHITA JABRA  LGT RAIN  40  40 100 N3        30.07S FOG
WICHITA MCCONL LGT RAIN  41  40  96 N6        30.07S FOG
WINFIELD       LGT RAIN  43  43 100 SE3       30.07S FOG
$$

KSZ007>012-019>026-033>040-048>060-102>105-040600-
NORTHEAST KANSAS

CITY           SKY/WX    TMP DP  RH WIND       PRES   REMARKS
CONCORDIA      LGT RAIN  37  37 100 SW7       30.07R
EMPORIA        RAIN      40  40 100 CALM      30.08S FOG
LAWRENCE       LGT RAIN  41  40  96 SE5       30.11S FOG
MANHATTAN      LGT RAIN  41  39  93 S3        30.09S FOG
MARYSVILLE     RAIN      37  37 100 S5        30.07S
OLATHE IND     LGT RAIN  41  39  93 SE8       30.11S
OLATHE EXE     LGT RAIN  40  38  93 S7        30.10F
SALINA         LGT RAIN  41  40  96 S8        30.08S FOG
TOPEKA BILLARD LGT RAIN  41  38  89 CALM      30.10F FOG
TOPEKA FORBES  LGT RAIN  42  39  89 CALM      30.10S FOG
$$




USA.gov is the U.S. government's official web portal to all federal, state and local government web resources and services.